GPM-CORE (39574 NORAD) Tracking and Keplerian Element Data

This shows tracking and keplerian element data for the satellite.

Feedback or suggestion? Click here.




ElementValue
Catalog39574
NameGPM-CORE
Epoch Orbit26784
Epoch Day319.61056956
Epoch Year2018
RAAN323.6682
Inclination65.0082
Eccentricity0.0010643
Argument of Perigee276.9224
Mean Anonmoly83.0711
Mean Motion15.55411111
Decay Rate4.478E-05
L11 39574U 14009C 18319.61056956 .00004478 00000-0 69537-4 0 9999
L22 39574 65.0082 323.6682 0010643 276.9224 83.0711 15.55411111267849

Live tracking and technical data element details for GPM-CORE (NORAD 39574). GPM-CORE can be tracked NOW for your location showing map with azimuth and elevation plus other details from your city location.

Track the satellite on the map from your city or location and see movement details for azimuth, elevation, latitude, longitude, range, height, and movement on the map or in text.







IsCatalogInMostPopularTable: catalog: 39574, numindb: 146
Update: records affected: 1



GetName: 39574 GPM-CORE

Hit Count: updated at: Fri, 16 Nov 2018 11:37:44 GMT